Regional Weather Roundup
Issued by NWS Sioux Falls, SD

Home | Current Version | Previous Version | Graphics & Text | Print | Product List | Glossary On
Versions: 1 2 3 4 5 6 7 8 9 10 11 12 13 14 15 16 17 18 19 20 21 22 23 24 25 26 27 28 29 30 31 32 33 34 35 36 37 38 39 40 41 42 43 44 45 46 47 48 49 50
000
ASUS43 KFSD 221602
RWRFSD

WEATHER ROUNDUP FOR SE SOUTH DAKOTA/SW MINNESOTA/NW IOWA
NATIONAL WEATHER SERVICE SIOUX FALLS SD
1000 AM CST THU FEB 22 2018

NOTE: "FAIR" INDICATES FEW OR NO CLOUDS BELOW 12,000 FEET WITH NO
SIGNIFICANT WEATHER AND OR OBSTRUCTIONS TO VISIBILITY.


SDZ038>040-050-052>070-221700-
SOUTHEAST SOUTH DAKOTA

CITY           SKY/WX    TMP DP  RH WIND       PRES   REMARKS
BROOKINGS      CLOUDY    19  15  84 SE13      30.42F WCI   6
CHAMBERLAIN    CLOUDY    22  19  89 E10       30.33F WCI  11
HURON          CLOUDY    19  14  81 SE13      30.40F WCI   6
MADISON        CLOUDY    19  19 100 SE12      30.40F WCI   7
MITCHELL       CLOUDY    21  16  81 SE12      30.40F WCI   9
SIOUX FALLS    CLOUDY    21  16  81 E8        30.42F WCI  11
WINNER         CLOUDY    23  16  74 S10       30.29S WCI  12
YANKTON        FLURRIES  20  17  88 E9        30.40F WCI   9
$$

MNZ071-072-080-081-089-090-097-098-221700-
SOUTHWEST MINNESOTA

CITY           SKY/WX    TMP DP  RH WIND       PRES   REMARKS
FAIRMONT       CLOUDY    21  16  81 NE7       30.49F WCI  12
JACKSON        CLOUDY    19  16  86 NE8       30.46F WCI   9
LUVERNE        CLOUDY    21  16  79 E9        30.44F WCI  11
MARSHALL       CLOUDY    18  12  77 SE7       30.50F WCI   9
MONTEVIDEO     CLOUDY    16   9  73 S9        30.51F WCI   4
PIPESTONE      CLOUDY    18  14  86 SE7       30.42F WCI   8
REDWOOD FALLS  CLOUDY    16  10  77 E7        30.52S WCI   6
TRACY          LGT SNOW  18  15  89 CALM      30.47F
WORTHINGTON    CLOUDY    19  15  84 E9        30.44F WCI   8
$$

IAZ001>003-012>014-020>022-031-032-NEZ013-014-SDZ071-221700-
NORTHWEST IOWA

CITY           SKY/WX    TMP DP  RH WIND       PRES   REMARKS
CHEROKEE       CLOUDY    25  21  85 E7        30.42F WCI  17
DENISON        LGT SNOW  25  21  86 E12G21    30.41F WCI  14
ESTHERVILLE    CLOUDY    19  17  92 NE8       30.46F WCI   9
LE MARS        CLOUDY    25  19  80 E8        30.41F WCI  16
ORANGE CITY    CLOUDY    25  21  86 E8        30.40F WCI  16
SHELDON        CLOUDY    21  21 100 E8        30.41F WCI  12
SIOUX CITY     CLOUDY    23  19  85 E8        30.41F WCI  14
SPENCER        MIX PCPN  24  20  84 E10       30.44F FOG     WCI  14
STORM LAKE     MIX PCPN  23  19  86 E14       30.40F WCI  11
$$

ABBREVIATIONS USED IN REMARKS
   TC - TEMPERATURE IN CELSIUS
  WCI - WIND CHILL INDEX
   HX - HEAT INDEX
  VSB - VISIBILITY





USA.gov is the U.S. government's official web portal to all federal, state and local government web resources and services.